{"data":{"norad_id":62783,"intl_designator":"2025-015AB","name":"STARLINK-33582","alt_names":[],"object_type":"PAYLOAD","status":"ACTIVE","operator":null,"country":"US","launch_date":"2025-01-21","launch_site_code":"AFWTR","launch_vehicle":null,"mission":null,"orbit_class":"UNKNOWN","rcs_meters":null,"size_class":null,"mass_kg":null,"dimensions":null,"purposes":["comms"],"wikipedia_slug":null,"has_3d_model":false,"image_url":null,"decayed_at":null,"tle_current":{"epoch":"2026-09-21T22:00:03.000096Z","epoch_age_seconds":48939,"freshness":"FRESH","line1":"1 62783U 25015AB  26264.91670139  .00063482  00000+0  64673-3 0  9996","line2":"2 62783  53.1445 113.7010 0006948 205.7684 228.6461 15.64517587  5881","mean_motion":15.64517587,"eccentricity":0.0006948,"inclination_deg":53.1445,"raan_deg":113.701,"arg_perigee_deg":205.7684,"mean_anomaly_deg":228.6461,"bstar":0.00064673,"rev_number":588,"period_min":92.041151340538,"perigee_km":369.93470857389,"apogee_km":379.31834877334,"semimajor_km":6752.7635286736,"source":"CELESTRAK","updated_at":"2026-09-22T09:00:49.665882Z"}}}